Location: Unspecified
(0.0000°N, 0.0000°E)
Time: 17:25:04
(UTC+00:00)

STARLINK 1054 - Pass Details

Date: 20 January 2020
Orbit: 549 x 551 km, 53.0° (Epoch: 23 January)

Event Time Altitude Azimuth Distance (km) Brightness Sun altitude
Rises 05:03:42 0° 200° (SSW) 2,728 7.2 -15.7°
Reaches altitude 10° 05:06:05 10° 191° (S) 1,829 6.4 -15.2°
Maximum altitude 05:09:54 35° 124° (SE) 896 5.4 -14.3°
Drops below altitude 10° 05:13:41 10° 58° (ENE) 1,816 6.8 -13.4°
Sets 05:16:02 0° 49° (NE) 2,704 7.5 -12.8°
